TimeMST,TemperatureF,Dew PointF,Humidity,Sea Level PressureIn,VisibilityMPH,Wind Direction,Wind SpeedMPH,Gust SpeedMPH,PrecipitationIn,Events,Conditions,WindDirDegrees,DateUTC
12:15 AM,50.0,50.0,100,30.12,0.2,Calm,Calm,-,N/A,Fog,Fog,0,2012-11-06 07:15:00
12:35 AM,50.0,50.0,100,30.11,1.0,Calm,Calm,-,N/A,,Mostly Cloudy,0,2012-11-06 07:35:00
12:55 AM,50.0,50.0,100,30.11,0.5,SE,3.5,-,N/A,Fog,Fog,130,2012-11-06 07:55:00
1:15 AM,51.8,51.8,100,30.11,0.8,Calm,Calm,-,N/A,,Overcast,0,2012-11-06 08:15:00
1:35 AM,51.8,51.8,100,30.10,0.8,Calm,Calm,-,N/A,,Overcast,0,2012-11-06 08:35:00
1:55 AM,50.0,50.0,100,30.10,0.5,Calm,Calm,-,N/A,Fog,Fog,0,2012-11-06 08:55:00
2:15 AM,50.0,50.0,100,30.10,0.2,Calm,Calm,-,N/A,Fog,Fog,0,2012-11-06 09:15:00
2:35 AM,50.0,50.0,100,30.09,0.2,Calm,Calm,-,N/A,Fog,Fog,0,2012-11-06 09:35:00
2:55 AM,50.0,50.0,100,30.09,0.2,Calm,Calm,-,N/A,Fog,Fog,0,2012-11-06 09:55:00
3:15 AM,50.0,50.0,100,30.09,0.5,Calm,Calm,-,N/A,Fog,Fog,0,2012-11-06 10:15:00
3:35 AM,50.0,50.0,100,30.09,0.5,Calm,Calm,-,N/A,Fog,Fog,0,2012-11-06 10:35:00
3:55 AM,50.0,50.0,100,30.08,0.5,Calm,Calm,-,N/A,Fog,Fog,0,2012-11-06 10:55:00
4:15 AM,51.8,51.8,100,30.07,2.5,Calm,Calm,-,N/A,,Mostly Cloudy,0,2012-11-06 11:15:00
4:35 AM,50.0,50.0,100,30.07,0.8,Calm,Calm,-,N/A,,Mostly Cloudy,0,2012-11-06 11:35:00
4:55 AM,48.2,48.2,100,30.06,0.8,Calm,Calm,-,N/A,,Mostly Cloudy,0,2012-11-06 11:55:00
5:15 AM,48.2,48.2,100,30.05,1.5,Calm,Calm,-,N/A,,Mostly Cloudy,0,2012-11-06 12:15:00
5:35 AM,48.2,48.2,100,30.05,4.0,Calm,Calm,-,N/A,,Scattered Clouds,0,2012-11-06 12:35:00
5:55 AM,48.2,48.2,100,30.05,0.8,Calm,Calm,-,N/A,,Mostly Cloudy,0,2012-11-06 12:55:00
6:15 AM,48.2,48.2,100,30.05,0.8,Calm,Calm,-,N/A,,Overcast,0,2012-11-06 13:15:00
6:35 AM,48.2,48.2,100,30.05,1.2,Calm,Calm,-,N/A,,Overcast,0,2012-11-06 13:35:00
6:55 AM,48.2,48.2,100,30.05,5.0,SE,3.5,-,N/A,,Scattered Clouds,130,2012-11-06 13:55:00
7:15 AM,48.2,48.2,100,30.05,7.0,Calm,Calm,-,N/A,,Clear,0,2012-11-06 14:15:00
7:35 AM,48.2,48.2,100,30.05,3.0,Calm,Calm,-,N/A,,Clear,0,2012-11-06 14:35:00
7:55 AM,46.4,46.4,100,30.06,0.2,Calm,Calm,-,N/A,Fog,Fog,0,2012-11-06 14:55:00
8:15 AM,46.4,46.4,100,30.06,0.2,SSE,3.5,-,N/A,Fog,Fog,160,2012-11-06 15:15:00
8:35 AM,48.2,48.2,100,30.07,2.5,Calm,Calm,-,N/A,,Scattered Clouds,0,2012-11-06 15:35:00
8:55 AM,48.2,48.2,100,30.06,1.5,Calm,Calm,-,N/A,,Mist,0,2012-11-06 15:55:00
9:15 AM,50.0,50.0,100,30.06,2.5,Calm,Calm,-,N/A,,Clear,0,2012-11-06 16:15:00
9:35 AM,50.0,50.0,100,30.06,5.0,Calm,Calm,-,N/A,,Clear,0,2012-11-06 16:35:00
9:55 AM,51.8,51.8,100,30.06,7.0,Calm,Calm,-,N/A,,Clear,0,2012-11-06 16:55:00
10:15 AM,53.6,53.6,100,30.07,10.0,Calm,Calm,-,N/A,,Clear,0,2012-11-06 17:15:00
10:35 AM,55.4,55.4,100,30.07,10.0,Calm,Calm,-,N/A,,Clear,0,2012-11-06 17:35:00
10:55 AM,57.2,57.2,100,30.07,10.0,Calm,Calm,-,N/A,,Clear,0,2012-11-06 17:55:00
11:15 AM,57.2,57.2,100,30.07,10.0,Calm,Calm,-,N/A,,Clear,0,2012-11-06 18:15:00
11:35 AM,59.0,59.0,100,30.07,10.0,Calm,Calm,-,N/A,,Scattered Clouds,0,2012-11-06 18:35:00
11:55 AM,59.0,59.0,100,30.07,10.0,Calm,Calm,-,N/A,,Scattered Clouds,0,2012-11-06 18:55:00
12:15 PM,59.0,59.0,100,30.06,10.0,Calm,Calm,-,N/A,,Scattered Clouds,0,2012-11-06 19:15:00
12:35 PM,60.8,60.8,100,30.06,10.0,SW,4.6,-,N/A,,Scattered Clouds,220,2012-11-06 19:35:00
12:55 PM,60.8,60.8,100,30.06,10.0,SW,8.1,-,N/A,,Scattered Clouds,220,2012-11-06 19:55:00
1:15 PM,60.8,60.8,100,30.06,10.0,SSW,8.1,-,N/A,,Mostly Cloudy,210,2012-11-06 20:15:00
1:35 PM,60.8,60.8,100,30.06,7.0,SW,5.8,-,N/A,,Overcast,230,2012-11-06 20:35:00
1:55 PM,59.0,59.0,100,30.06,10.0,SSW,9.2,-,N/A,,Overcast,200,2012-11-06 20:55:00
2:15 PM,59.0,57.2,94,30.07,10.0,SSW,8.1,-,N/A,,Overcast,210,2012-11-06 21:15:00
2:35 PM,59.0,57.2,94,30.07,10.0,SSW,8.1,-,N/A,,Overcast,210,2012-11-06 21:35:00
2:55 PM,57.2,57.2,100,30.07,2.5,SSW,5.8,-,N/A,,Overcast,200,2012-11-06 21:55:00
3:15 PM,57.2,57.2,100,30.07,3.0,SSW,3.5,-,N/A,,Overcast,200,2012-11-06 22:15:00
3:35 PM,57.2,57.2,100,30.07,2.5,SSW,3.5,-,N/A,,Overcast,200,2012-11-06 22:35:00
3:55 PM,57.2,57.2,100,30.07,2.0,Calm,Calm,-,N/A,Rain,Rain,0,2012-11-06 22:55:00
4:15 PM,57.2,57.2,100,30.08,2.0,WSW,3.5,-,N/A,,Drizzle,240,2012-11-06 23:15:00
4:35 PM,57.2,57.2,100,30.08,1.8,WSW,3.5,-,0.01,,Drizzle,240,2012-11-06 23:35:00
4:55 PM,55.4,55.4,100,30.08,2.5,South,4.6,-,0.02,,Drizzle,190,2012-11-06 23:55:00
5:15 PM,55.4,55.4,100,30.08,5.0,SSW,4.6,-,N/A,,Overcast,200,2012-11-07 00:15:00
5:35 PM,55.4,55.4,100,30.08,5.0,Calm,Calm,-,N/A,,Overcast,0,2012-11-07 00:35:00
5:55 PM,55.4,55.4,100,30.08,7.0,Calm,Calm,-,N/A,,Overcast,0,2012-11-07 00:55:00
6:15 PM,55.4,55.4,100,30.07,10.0,Calm,Calm,-,N/A,,Overcast,0,2012-11-07 01:15:00
6:35 PM,55.4,55.4,100,30.07,10.0,Calm,Calm,-,N/A,Rain,Rain,0,2012-11-07 01:35:00
6:55 PM,55.4,55.4,100,30.07,10.0,Calm,Calm,-,N/A,,Overcast,0,2012-11-07 01:55:00
7:15 PM,55.4,55.4,100,30.08,2.5,Calm,Calm,-,0.01,,Heavy Drizzle,0,2012-11-07 02:15:00
7:35 PM,55.4,55.4,100,30.08,3.0,WSW,4.6,-,0.05,Rain,Rain,250,2012-11-07 02:35:00
7:55 PM,55.4,55.4,100,30.08,10.0,SSW,3.5,-,0.05,,Overcast,210,2012-11-07 02:55:00
8:15 PM,55.4,55.4,100,30.09,10.0,West,5.8,-,N/A,,Overcast,260,2012-11-07 03:15:00
8:35 PM,55.4,55.4,100,30.09,5.0,West,4.6,-,N/A,Rain,Rain,260,2012-11-07 03:35:00
8:55 PM,55.4,55.4,100,30.09,5.0,Calm,Calm,-,N/A,,Overcast,0,2012-11-07 03:55:00
9:15 PM,53.6,53.6,100,30.10,10.0,NW,6.9,-,N/A,,Overcast,310,2012-11-07 04:15:00
9:35 PM,53.6,53.6,100,30.11,10.0,Calm,Calm,-,N/A,,Mostly Cloudy,0,2012-11-07 04:35:00
9:55 PM,53.6,53.6,100,30.11,10.0,Calm,Calm,-,N/A,,Mostly Cloudy,0,2012-11-07 04:55:00
10:15 PM,53.6,53.6,100,30.12,10.0,Calm,Calm,-,N/A,,Overcast,0,2012-11-07 05:15:00
10:35 PM,53.6,53.6,100,30.12,10.0,Calm,Calm,-,N/A,,Overcast,0,2012-11-07 05:35:00
10:55 PM,53.6,53.6,100,30.12,10.0,WSW,3.5,-,N/A,,Overcast,250,2012-11-07 05:55:00
11:15 PM,53.6,53.6,100,30.13,10.0,SW,3.5,-,0.01,,Overcast,230,2012-11-07 06:15:00
11:35 PM,53.6,53.6,100,30.13,10.0,SW,3.5,-,0.01,,Mostly Cloudy,230,2012-11-07 06:35:00
11:55 PM,51.8,51.8,100,30.13,10.0,Calm,Calm,-,0.01,,Scattered Clouds,0,2012-11-07 06:55:00